Flag for Canada Weather past 2 weeks in Cranbrook, British Columbia, Canada

Now
55 °F

Passing clouds.


Feels Like: 51 °F
Forecast: 53 / 61 °F
Wind: 17 mph from South

Location: Cranbrook

Current Time: Jul 24, 2014 at 5:51:31 AM

Latest Report: Jul 24, 2014 at 5:00 AM


Visibility: 25 mi

Pressure: 29.90 "Hg

Humidity: 72%

Dew point: 46 °F

Location of CranbrookLocation

Historic Weather in Cranbrook — Graph

°F

Cranbrook temperature yesterday

Maximum temperature yesterday: 86 °F (at 6:00 PM)
Minimum temperature yesterday: 52 °F (at 6:00 AM)
Average temperature yesterday: 67 °F

Past Weeks' High & Low Weather Summary

 TemperatureHumidityPressure
High95 °F (Jul 13, 5:00 PM)94% (Jul 21, 6:00 AM)30.22 "Hg (Jul 21, 6:00 AM)
Low50 °F (Jul 21, 6:00 AM)8% (Jul 10, 5:00 PM)29.62 "Hg (Jul 17, 5:00 PM)
Average73 °F41%29.91 "Hg
* Reported Jul 9 4:00 AM — Jul 24 4:00 AM, Cranbrook, Weather by CustomWeather, © 2014

Note: Actual official high and low records may vary slightly from our data, if they occured in-between our weather recording intervals... More about our weather records

Advertising

Cranbrook weather history for previous 24 hours

 ConditionsComfort  
Time TempWeatherWind HumidityBarometerVisibility
4:00 AM
Jul 24
55 °FPassing clouds.15 mph77%29.90 "Hg25 mi
3:00 AM57 °FPassing clouds.15 mph77%29.90 "Hg25 mi
2:00 AM59 °FMostly cloudy.17 mph77%29.90 "Hg25 mi
1:00 AM59 °FMostly cloudy.16 mph82%29.90 "Hg25 mi
12:00 AM59 °FPassing clouds.2 mph82%29.92 "Hg25 mi
11:00 PM
Jul 23
59 °FOvercast.12 mph88%29.93 "Hg20 mi
10:00 PM59 °FMostly cloudy.7 mph88%29.95 "Hg20 mi
9:00 PM59 °FThunderstorms. Partly sunny.12 mph88%29.94 "Hg20 mi
8:00 PM70 °FThunderstorms. Partly sunny.15 mph57%29.85 "Hg15 mi
7:00 PM79 °FPartly sunny.5 mph37%29.79 "Hg25 mi
6:00 PM86 °FPartly sunny.9 mph27%29.82 "Hg25 mi
5:00 PM84 °FPartly sunny.8 mph29%29.86 "Hg25 mi
4:00 PM84 °FBroken clouds.5 mph29%29.90 "Hg25 mi
3:00 PM81 °FPartly sunny.7 mph32%29.94 "Hg25 mi
2:00 PM79 °FScattered clouds.5 mph37%29.98 "Hg25 mi
1:00 PM75 °FScattered clouds.6 mph41%30.01 "Hg25 mi
12:00 PM70 °FPartly sunny.2 mph53%30.05 "Hg25 mi
11:00 AM64 °FPartly sunny.6 mph60%30.09 "Hg25 mi
10:00 AM61 °FPartly sunny.2 mph72%30.11 "Hg25 mi
9:00 AM55 °FScattered clouds.5 mph82%30.14 "Hg25 mi
8:00 AM54 °FPartly sunny.No wind88%30.15 "Hg25 mi
7:00 AM52 °FPassing clouds.2 mph94%30.15 "Hg25 mi
6:00 AM52 °FPartly cloudy.3 mph88%30.16 "Hg25 mi
5:00 AM54 °FPassing clouds.6 mph82%30.15 "Hg25 mi
Weather by CustomWeather, © 2014

See weather overviewHow to use our weather pages